Regional Weather Roundup
Issued by NWS

Home | Current Version | Previous Version | Text Only | Print | Product List | Glossary On
Versions: 1 2 3 4 5 6 7 8 9 10 11 12 13 14 15 16 17 18 19 20 21 22 23 24 25 26 27 28 29 30 31 32 33 34 35 36 37 38 39 40 41 42 43 44 45 46 47 48 49 50
046
ASUS43 KOAX 041510
RWRNE

WEATHER ROUNDUP FOR NEBRASKA
NATIONAL WEATHER SERVICE OMAHA NE
900 AM CST SUN DEC 04 2016

NOTES: SATELLITE DATA IS BEING USED TO AUGMENT CLOUD COVER ABOVE
       12000 FEET.
       "FAIR" INDICATES FEW OR NO CLOUDS BELOW 12,000 FEET WITH NO
       SIGNIFICANT WEATHER AND/OR OBSTRUCTIONS TO VISIBILITY.

  * THESE STATIONS DO NOT REPORT WEATHER SUCH AS RAIN...SNOW OR FOG.

NEZ001>004-019>022-054>056-041600-
NEBRASKA PANHANDLE

CITY           SKY/WX    TMP DP  RH WIND       PRES   REMARKS
SCOTTSBLUFF    CLEAR     19  11  70 NW3       29.99S
ALLIANCE       CLEAR     21  14  74 W10       29.96F WCI  10
CHADRON        CLEAR     25  13  60 W5        29.96F WCI  19
KIMBALL        CLEAR     27  15  61 W12       30.00S WCI  17
SIDNEY         CLEAR     29  14  53 W16       30.00S WCI  17
$$

NEZ057>060-069>072-079>082-041600-
SOUTHWEST NEBRASKA

CITY           SKY/WX    TMP DP  RH WIND       PRES   REMARKS
NORTH PLATTE   CLOUDY    24  19  81 NW8       30.00R WCI  15
IMPERIAL       CLEAR     28  15  58 W10       30.03R WCI  19
LEXINGTON      SUNNY     27  23  85 NW7       29.99S WCI  19
MCCOOK         SUNNY     26  18  71 W9        30.04R WCI  17
OGALLALA       CLEAR     30  19  61 SW7       30.01R WCI  23
$$

NEZ005>010-023>029-035>040-094-041600-
NORTH CENTRAL NEBRASKA

CITY           SKY/WX    TMP DP  RH WIND       PRES   REMARKS
VALENTINE      CLEAR     27  20  75 SW8       29.93R WCI  19
AINSWORTH      CLEAR     31  23  73 W8        29.92F WCI  23
BROKEN BOW     CLEAR     33  22  63 W12       29.96R WCI  24
O`NEILL        CLEAR     31  26  80 W8        29.93R WCI  24
ORD            SUNNY     28  24  85 CALM      29.96R
THEDFORD       PTCLDY    29  22  75 W6        29.96S WCI  23
$$

NEZ041-046>049-061>064-073>077-083>087-041600-
SOUTH CENTRAL NEBRASKA

CITY           SKY/WX    TMP DP  RH WIND       PRES   REMARKS
GRAND ISLAND   SUNNY     31  28  89 W9        29.97F WCI  23
AURORA         SUNNY     29  29 100 W6        29.97S WCI  23
HASTINGS       SUNNY     29  26  89 W6        29.99S WCI  23
HEBRON         CLOUDY    32  31  96 W5        30.01F FOG     WCI  27
HOLDREGE       SUNNY     28  23  82 W6        30.00R WCI  22
KEARNEY *      SUNNY     32  21  64 W6        29.98S WCI  26
YORK           FOG       28  28 100 CALM      29.98S VSB 1/2
$$

NEZ011>018-030>034-042>045-041600-
NORTHEAST NEBRASKA

CITY           SKY/WX    TMP DP  RH WIND       PRES   REMARKS
NORFOLK        SUNNY     31  25  78 W9        29.93S WCI  23
ALBION         SUNNY     30  25  84 CALM      29.95S
BLAIR          CLOUDY    33  32  94 SW8       29.96S WCI  27
FREMONT        MOSUNNY   32  32  99 SW7       29.98R WCI  26
TEKAMAH        CLOUDY    33  30  88 S9        29.96F WCI  25
WAYNE          SUNNY     31  29  90 CALM      29.93S
$$

NEZ050>053-065>068-078-088>093-041600-
SOUTHEAST NEBRASKA

CITY           SKY/WX    TMP DP  RH WIND       PRES   REMARKS
LINCOLN        CLOUDY    33  31  92 W8        30.01S WCI  26
OMAHA EPPLEY   CLOUDY    35  30  82 SW5       29.99R WCI  31
BEATRICE       CLOUDY    33  32  96 W8        30.01F WCI  26
FALLS CITY     CLOUDY    36  35  96 W9        30.00R WCI  29
NEBRASKA CITY  CLOUDY    32  32 100 W9        30.01R FOG     WCI  25
PLATTSMOUTH    CLOUDY    33  30  88 W7        29.99S WCI  27
$$

NEZ044-045-051>053-067-041600-
OMAHA AREA

CITY           SKY/WX    TMP DP  RH WIND       PRES   REMARKS
OMAHA EPPLEY   CLOUDY    35  30  82 SW5       29.99R WCI  31
BLAIR          CLOUDY    33  32  94 SW8       29.96S WCI  27
FREMONT        MOSUNNY   32  32  99 SW7       29.98R WCI  26
MILLARD        CLOUDY    35  32  90 SW5       29.98F WCI  31
OFFUTT AFB     CLOUDY    34  34 100 SW8       29.98F WCI  27
PLATTSMOUTH    CLOUDY    33  30  88 W7        29.99S WCI  27
WAHOO          CLOUDY    33  32  96 SW9       29.97S WCI  25
$$




USA.gov is the U.S. government's official web portal to all federal, state and local government web resources and services.